Location: Caltech
(34.1382°N, 118.1253°W)
Time: 11:21:37
(UTC-07:00)

Cosmos 1408 Rocket - Visible Passes

Search period start: 23 September 2014 00:00
Search period end: 03 October 2014 00:00
Orbit: 602 x 634 km, 82.6° (Epoch: 22 September)

Date Brightness Start Highest point End Pass type
(mag) Time Alt. Az. Time Alt. Az. Time Alt. Az.
23 Sep 5.9 05:53:36 10° SSE 05:57:21 29° E 06:01:06 10° NNE visible
24 Sep 4.3 06:09:57 10° S 06:14:14 58° E 06:18:29 10° NNE visible
26 Sep 6.7 05:08:13 10° ESE 05:10:44 15° E 05:13:15 10° NE visible
27 Sep 5.6 05:23:46 10° SSE 05:27:32 29° E 05:31:16 10° NNE visible
28 Sep 4.1 05:40:08 10° S 05:44:24 60° E 05:48:39 10° NNE visible
29 Sep 3.5 05:57:03 10° SSW 06:01:21 67° W 06:05:39 10° N visible
30 Sep 6.5 04:38:21 10° ESE 04:40:54 15° E 04:43:26 10° NE visible
30 Sep 4.2 06:14:30 10° SW 06:18:23 32° W 06:22:17 10° NNW visible
01 Oct 5.5 04:53:55 10° SSE 04:57:41 30° E 05:01:26 10° NNE visible
02 Oct 4.0 05:10:18 10° S 05:14:33 61° E 05:18:48 10° NNE visible
